HULIANWANG DIGUI-32

导读

HULIANWANG DIGUI-32是中国于2025年6月5日发射的低轨互联网卫星,属于中国低轨星座网络建设的重要组成部分。该卫星旨在构建全球覆盖的高速互联网络,服务天地一体化信息传输,助力物联网、宽带通信等领域发展,推动中国卫星互联网产业布局进一步完善。

基本信息
目录编号:
64285
目录名称:
HULIANWANG DIGUI-32
国际标识:
2025-121C
轨道中心:
EARTH
卫星名称:
HULIANWANG DIGUI-32
卫星全名:
HULIANWANG DIGUI-32
卫星状态:
在轨 (已飞行372 天)
发射日期:
2025-06-05 UTC
国别 :
中国 (CN)
星等 :
--
轨道信息
数据来源 国际轨道数据 AOE轨道数据
星历时间 2026-06-12T13:48:57+0800
14小时前
查看轨道信息
2026-06-06T06:00:00+0800
6天前
查看轨道信息
半长轴 7546.063km 7546.069km
偏心率 0.0001774 0.0001743
轨道倾角 86.495° 86.495°
近地点辐角 89.280° 94.133°
升交点赤经 15.074° 17.210°
平近点角 270.853° 3.244°
近地点 1166.587km 1166.616km
远地点 1169.265km 1169.248km
周期 108.728分钟 108.728分钟
每日圈数 13.244092 13.244076
详细信息
使用方式:
暂无
2D轨道图
3D轨道图
轨道高度分析图
轨道倾角分析图
轨道综合分析图
查看轨道综合分析图